This demonstration page uses our WeatherBlox Daily Observations layout. Learn more.

Left ArrowRight Arrow

34.16533, -84.80231

Hourly Observations for October 31, 2019

Temp ( °F °C ) Dew Point ( °F °C ) Humidity (%) Winds ( mph kmh ) Pressure ( in mb ) Visibility ( mi km ) Precip ( " mm )
12:11 am 00:11 Cloudy 73 22.8 70 21.1 90 90 SSE 5 7 29.94 1014 10 16 0.01 0.25
12:53 am 00:53 Mostly Cloudy 73 22.8 70 21.1 90 90 Calm 29.92 1013 10 16 0.01 0.25
1:18 am 01:18 Mostly Cloudy 73 22.8 70 21.1 90 90 SSE 6 9 29.93 1013 10 16 0.00 0.00
1:25 am 01:25 Mostly Cloudy 73 22.8 70 21.1 90 90 S 6 9 29.93 1013 10 16 0.00 0.00
1:53 am 01:53 Mostly Clear 72 22.2 70 21.1 94 94 SSE 5 7 29.91 1013 10 16 0.00 0.00
2:53 am 02:53 Mostly Clear 72 22.2 69 20.6 91 91 SE 6 9 29.88 1012 10 16 0.00 0.00
3:31 am 03:31 Mostly Cloudy 72 22.2 69 20.6 91 91 SSE 3 6 29.88 1012 10 16 0.00 0.00
3:53 am 03:53 Cloudy 72 22.2 70 21.1 94 94 SSE 3 6 29.86 1011 10 16 0.00 0.00
4:20 am 04:20 Mostly Cloudy 72 22.2 69 20.6 91 91 Calm 29.86 1011 7 11 0.00 0.00
4:32 am 04:32 Mostly Cloudy 72 22.2 70 21.1 94 94 Calm 29.86 1011 10 16 0.00 0.00
4:53 am 04:53 Cloudy 72 22.2 69 20.6 91 91 Calm 29.85 1011 10 16 0.00 0.00
5:27 am 05:27 Cloudy with Light Rain 72 22.2 70 21.1 94 94 S 5 7 29.87 1011 5 8 0.00 0.00
5:41 am 05:41 Cloudy 73 22.8 70 21.1 90 90 S 7 11 29.87 1011 10 16 0.00 0.00
5:53 am 05:53 Cloudy 73 22.8 69 20.6 87 87 S 8 13 29.85 1011 10 16 0.00 0.00
6:25 am 06:25 Cloudy 73 22.8 69 20.6 87 87 S 7 11 29.86 1011 10 16 0.00 0.00
6:53 am 06:53 Cloudy 73 22.8 69 20.6 87 87 S 5 7 29.84 1010 10 16 0.00 0.00
7:03 am 07:03 Cloudy 73 22.8 69 20.6 87 87 SSE 6 9 29.85 1011 10 16 0.00 0.00
7:53 am 07:53 Cloudy 73 22.8 69 20.6 87 87 VRB 6 9 29.84 1010 10 16 0.00 0.00
8:53 am 08:53 Cloudy 73 22.8 69 20.6 87 87 S 7 11 29.84 1010 10 16 0.00 0.00
9:32 am 09:32 Cloudy 73 22.8 69 20.6 87 87 SSE 8 13 29.85 1011 10 16 0.00 0.00
9:53 am 09:53 Cloudy 73 22.8 69 20.6 87 87 SSE 8 13 29.83 1010 9 14 0.00 0.00
10:36 am 10:36 Cloudy with Light Rain 74 23.3 70 21.1 88 88 S 7 11 29.83 1010 9 14 0.00 0.00
10:53 am 10:53 Cloudy with Light Rain 74 23.3 70 21.1 88 88 S 9 15 29.82 1010 10 16 0.00 0.00
11:02 am 11:02 Cloudy 74 23.3 70 21.1 88 88 S 9 15 29.82 1010 10 16 0.00 0.00
11:28 am 11:28 Cloudy with Rain 72 22.2 69 20.6 91 91 VRB 3 6 29.85 1011 2 3 0.08 2.03
11:36 am 11:36 Cloudy with Heavy Rain 64 17.8 62 16.7 93 93 VRB 5 7 29.88 1012 1 1 0.18 4.57
11:46 am 11:46 Cloudy with Rain 62 16.7 59 15 90 90 VRB 6 9 29.90 1013 2 3 0.23 5.84
11:51 am 11:51 Cloudy with Light Rain 63 17 59 15 88 88 VRB 3 6 29.89 1012 3 4 0.24 6.10
11:53 am 11:53 Cloudy with Light Rain 62 16.7 59 15 90 90 VRB 3 6 29.87 1012 3 5 0.24 6.10
12:14 pm 12:14 Cloudy 60 15.6 56 13.3 86 86 VRB 5 7 29.91 1013 10 16 0.00 0.00
12:44 pm 12:44 Cloudy with Rain 57 13.9 55 12.8 93 93 VRB 5 7 29.95 1014 2 2 0.08 2.03
12:53 pm 12:53 Cloudy with Light Rain 57 13.9 54 12.2 90 90 VRB 3 6 29.94 1014 2 2 0.12 3.05
12:55 pm 12:55 Cloudy with Light Rain 57 13.9 54 12.2 90 90 VRB 5 7 29.97 1015 1 2 0.04 1.02
1:19 pm 13:19 Cloudy with Heavy Rain 55 12.8 52 11.1 90 90 VRB 7 11 29.96 1015 2 3 0.12 3.05
1:26 pm 13:26 Cloudy with Light Rain 55 12.8 52 11.1 90 90 undefined N/A 29.97 1015 3 5 0.12 3.05
1:35 pm 13:35 Cloudy with Light Rain 54 12.2 51 10.6 90 90 VRB 3 6 29.96 1015 10 16 0.12 3.05
1:44 pm 13:44 Mostly Cloudy 54 12.2 51 10.6 90 90 VRB 3 6 29.97 1015 10 16 0.12 3.05
1:53 pm 13:53 Cloudy with Light Rain 54 12.2 50 10 87 87 VRB 5 7 29.95 1014 10 16 0.12 3.05
2:19 pm 14:19 Cloudy with Light Rain 53 11.7 50 10 89 89 VRB 5 7 29.97 1015 4 6 0.03 0.76
2:50 pm 14:50 Cloudy with Light Rain 52 11 46 8 82 82 VRB 5 7 29.99 1015 5 8 0.05 1.27
2:53 pm 14:53 Cloudy with Light Rain 50 10 46 7.8 86 86 VRB 7 11 29.97 1015 5 8 0.05 1.27
3:05 pm 15:05 Cloudy with Light Rain 50 10 46 7.8 86 86 undefined N/A 30.00 1016 8 13 0.01 0.25
3:18 pm 15:18 Cloudy with Light Rain 49 9.4 45 7.2 86 86 VRB 3 6 30.01 1016 10 16 0.01 0.25
4:53 pm 16:53 Cloudy 49 9.4 42 5.6 77 77 Calm 30.04 1017 10 16 0.00 0.00
5:53 pm 17:53 Cloudy 48 8.9 41 5 77 77 VRB 5 7 30.08 1019 10 16 0.00 0.00
6:10 pm 18:10 Cloudy 47 8.3 39 3.9 74 74 VRB 5 7 30.14 1021 10 16 0.00 0.00
6:53 pm 18:53 Cloudy 46 7.8 36 2.2 68 68 undefined N/A 30.13 1020 10 16 0.00 0.00
7:53 pm 19:53 Mostly Cloudy 45 7.2 35 1.7 68 68 VRB 3 6 30.15 1021 10 16 0.00 0.00
8:53 pm 20:53 Mostly Cloudy 42 5.6 33 0.6 71 71 VRB 5 7 30.18 1022 10 16 0.00 0.00
9:53 pm 21:53 Cloudy 41 5 30 -1.1 65 65 NNW 8 13 30.21 1023 10 16 0.00 0.00
10:19 pm 22:19 Mostly Cloudy 40 4.4 30 -1.1 68 68 NNW 6 9 30.27 1025 10 16 0.00 0.00
10:53 pm 22:53 Clear 40 4.4 29 -1.7 65 65 VRB 6 9 30.22 1024 10 16 0.00 0.00
11:53 pm 23:53 Cloudy 40 4.4 29 -1.7 65 65 VRB 6 9 30.23 1024 10 16 0.00 0.00

Powered by AerisWeather